1282176029005,32.5651
1282176089005,32.4109
1282176149005,32.4192
1282176209005,32.4647
1282176269005,32.4835
1282176329005,32.4607
1282176389005,32.5031
1282176449005,32.4743
1282176509005,32.3897
1282176569005,32.5025
1282176629005,32.3746
1282176689005,32.4688
1282176749005,32.3422
1282176809005,32.3747
1282176869005,32.4177
1282176929005,32.4018
1282176989005,32.4288
1282177049005,32.4222
1282177109005,32.4836
1282177169005,32.3181
1282177229005,32.2755
1282177289005,32.4036
1282177349005,32.3445
1282177409005,32.4359
1282177469005,32.3467
1282177529005,32.3309
1282177589005,32.2364
1282177649005,32.2687
1282177709005,32.2777
1282177769005,32.2048
1282177829005,32.2133
1282177889005,32.2171
1282177949005,32.2883
1282178009005,32.2775
1282178069005,32.2705
1282178129005,32.2530
1282178189005,32.2569
1282178249005,32.1991
1282178309005,32.1694
1282178369005,32.2098
1282178429005,32.3396
1282178489005,32.2513
1282178549005,32.1795
1282178609005,32.0682
1282178669005,32.0577
1282178729005,32.2086
1282178789005,32.0870
1282178849005,32.1368
1282178909005,32.2379
1282178969005,32.1862
1282179029005,32.1249
1282179089005,32.1484
1282179149005,32.0965
1282179209005,32.1456
1282179269005,32.0716
1282179329005,32.1692
1282179389005,32.1506
1282179449005,32.2162
1282179509005,32.1538
1282179569005,32.1278
1282179629014,32.1694
1282179689014,32.0837
1282179749014,32.1056
1282179809014,32.1541
1282179869014,32.0265
1282179929014,32.1375
1282179989014,32.0642
1282180049014,32.1978
1282180109014,32.0274
1282180169014,32.1230
1282180229014,32.1734
1282180289014,32.1720
1282180349014,32.1661
1282180409014,32.0341
1282180469014,32.1463
1282180529014,32.0096
1282180589014,32.0542
1282180649014,31.9953
1282180709014,32.0378
1282180769014,32.1064
1282180829014,32.0868
1282180889014,32.0251
1282180949014,32.1054
1282181009014,31.9904
1282181069014,31.9591
1282181129014,31.9858
1282181189014,32.0553
1282181249014,31.9942
1282181309014,32.0119
1282181369014,31.9506
1282181429014,31.9706
1282181489014,32.0743
1282181549014,31.9701
1282181609014,31.9266
1282181669014,32.0037
1282181729014,32.0336
1282181789014,31.9022
1282181849014,31.9280
1282181909014,31.9274
1282181969014,31.8934
1282182029014,31.9479
1282182089014,32.0302
1282182149014,31.9306
1282182209014,31.9180
1282182269014,31.9024
1282182329014,31.8119
1282182389014,31.9033
1282182449014,31.9108
1282182509014,31.9571
1282182569014,31.8534
1282182629014,31.9153
1282182689014,31.8841
1282182749014,31.8636
1282182809014,31.9370
1282182869014,31.9794
1282182929014,31.8862
1282182989014,31.8265
1282183049014,31.7923
1282183109014,31.7881
1282183169014,31.8016
1282183229023,31.8235
1282183289023,31.8743
1282183349023,31.7810
1282183409023,31.9413
1282183469023,31.7791
1282183529023,32.1390
1282183589023,31.8365
1282183649023,31.7730
1282183709023,31.7790
1282183769023,31.8761
1282183829023,31.8105
1282183889023,31.7393
1282183949023,31.8488
1282184009023,31.8909
1282184069023,31.7594
1282184129023,31.7874
1282184189023,31.7549
1282184249023,31.7815
1282184309023,31.8011
1282184369023,31.8489
1282184429023,31.8568
1282184489023,31.6695
1282184549023,31.8769
1282184609023,31.7765
1282184669023,31.7393
1282184729023,31.8409
1282184789023,31.6712
1282184849023,31.8043
1282184909023,31.7828
1282184969023,31.8305
1282185029023,31.7591
1282185089023,31.6988
1282185149023,31.7490
1282185209023,31.8100
1282185269023,31.8274
1282185329023,31.7547
1282185389023,31.7659
1282185449023,31.8185
1282185509023,31.7466
1282185569023,31.8568
1282185629023,31.7325
1282185689023,31.6498
1282185749023,31.7166
1282185809023,31.7823
1282185869023,31.8124
1282185929023,31.6967
1282185989023,31.6676
1282186049023,31.6577
1282186109023,31.7393
1282186169023,31.6868
1282186229023,31.6602
1282186289023,31.6857
1282186349023,31.7114
1282186409023,31.7667
1282186469023,31.7318
1282186529023,31.6992
1282186589023,31.7043
1282186649023,31.6281
1282186709023,31.6493
1282186769023,31.6911
1282186829032,31.6312
1282186889032,31.7507
1282186949032,31.6105
1282187009032,31.7139
1282187069032,31.6828
1282187129032,31.6750
1282187189032,31.6394
1282187249032,31.6933
1282187309032,31.6703
1282187369032,31.7577
1282187429032,31.6506
1282187489032,31.6453
1282187549032,31.7427
1282187609032,31.6728
1282187669032,31.7129
1282187729032,31.6644
1282187789032,31.6591
1282187849032,31.7179
1282187909032,31.6037
1282187969032,31.7534
1282188029032,31.7913
1282188089032,31.7764
1282188149032,31.7743
1282188209032,31.6419
1282188269032,31.7557
1282188329032,31.6902
1282188389032,31.7277
1282188449032,31.6955
1282188509032,31.8704
1282188569032,31.7774
1282188629032,31.8398
1282188689032,31.7307
1282188749032,31.8017
1282188809032,31.7252
1282188869032,31.7795
1282188929032,31.7600
1282188989032,31.7978
1282189049032,31.8561
1282189109032,31.7982
1282189169032,31.8849
1282189229032,31.7406
1282189289032,31.7928
1282189349032,31.8243
1282189409032,31.7770
1282189469032,31.8195
1282189529032,31.7962
1282189589032,31.7912
1282189649032,31.7576
1282189709032,31.7830
1282189769032,31.7566
1282189829032,31.7435
1282189889032,31.7544
1282189949032,31.6687
1282190009032,31.7045
1282190069032,31.7900
1282190129032,31.7617
1282190189032,31.7258
1282190249032,31.7837
1282190309032,31.7130
1282190369032,31.8321
1282190429041,31.6996
1282190489041,31.6994
1282190549041,31.7133
1282190609041,31.6569
1282190669041,31.7836
1282190729041,31.7435
1282190789041,31.6615
1282190849041,31.6572
1282190909041,31.7432
1282190969041,31.6425
1282191029041,31.8242
1282191089041,31.6439
1282191149041,31.6068
1282191209041,31.6293
1282191269041,31.6909
1282191329041,31.6677
1282191389041,31.6859
1282191449041,31.7696
1282191509041,31.6511
1282191569041,31.7506
1282191629041,31.6763
1282191689041,31.6490
1282191749041,31.6664
1282191809041,31.6932
1282191869041,31.7723
1282191929041,31.7054
1282191989041,31.6499
1282192049041,31.6606
1282192109041,31.7629
1282192169041,31.7105
1282192229041,31.7760
1282192289041,31.7119
1282192349041,31.7091
1282192409041,31.8017
1282192469041,31.8068
1282192529041,31.7933
1282192589041,31.8954
1282192649041,31.7429
1282192709041,31.7972
1282192769041,31.8144
1282192829041,31.7433
1282192889041,31.6207
1282192949041,31.7217
1282193009041,31.7784
1282193069041,31.7091
1282193129041,31.6265
1282193189041,31.8310
1282193249041,31.7495
1282193309041,31.6828
1282193369041,31.7498
1282193429041,31.7241
1282193489041,31.6677
1282193549041,31.7858
1282193609041,31.7303
1282193669041,31.7130
1282193729041,31.7220
1282193789041,31.6486
1282193849041,31.7683
1282193909041,31.6539
1282193969041,31.7744
1282194029050,31.6411
1282194089050,31.6944
1282194149050,31.7488
1282194209050,31.6445
1282194269050,31.6314
1282194329050,31.6377
1282194389050,31.6185
1282194449050,31.7446
1282194509050,31.7131
1282194569050,31.6897
1282194629050,31.7107
1282194689050,31.7229
1282194749050,31.6920
1282194809050,31.7571
1282194869050,31.6494
1282194929050,31.6542
1282194989050,31.6457
1282195049050,31.7378
1282195109050,31.7017
1282195169050,31.6847
1282195229050,31.6468
1282195289050,31.6625
1282195349050,31.7793
1282195409050,31.7081
1282195469050,31.7184
1282195529050,31.6962
1282195589050,31.7366
1282195649050,31.7818
1282195709050,31.7458
1282195769050,31.7603
1282195829050,31.6247
1282195889050,31.6619
1282195949050,31.6636
1282196009050,31.6793
1282196069050,31.7866
1282196129050,31.7271
1282196189050,31.6927
1282196249050,31.6938
1282196309050,31.7140
1282196369050,31.6820
1282196429050,31.6550
1282196489050,31.6569
1282196549050,31.6313
1282196609050,31.7682
1282196669050,31.6891
1282196729050,31.6873
1282196789050,31.7207
1282196849050,31.6512
1282196909050,31.7419
1282196969050,31.6766
1282197029050,31.7273
1282197089050,31.6696
1282197149050,31.8049
1282197209050,31.7170
1282197269050,31.7249
1282197329050,31.6640
1282197389050,31.7465
1282197449050,31.7094
1282197509050,31.7194
1282197569050,31.6631
1282197629058,31.7278
1282197689058,31.6994
1282197749058,31.7223
1282197809058,31.7237
1282197869058,31.7343
1282197929058,31.6998
1282197989058,31.6792
1282198049058,31.7260
1282198109058,31.6619
1282198169058,31.6442
1282198229058,31.7202
1282198289058,31.6528
1282198349058,31.7141
1282198409058,31.7521
1282198469058,31.7016
1282198529058,31.6927
1282198589058,31.7085
1282198649058,31.6722
1282198709058,31.7350
1282198769058,31.6257
1282198829058,31.6435
1282198889058,31.7266
1282198949058,31.7580
1282199009058,31.6861
1282199069058,31.6816
1282199129058,31.7014
1282199189058,31.6542
1282199249058,31.6741
1282199309058,31.5833
1282199369058,31.7261
1282199429058,31.6516
1282199489058,31.5152
1282199549058,31.7304
1282199609058,31.6018
1282199669058,31.6342
1282199729058,31.5523
1282199789058,31.5832
1282199849058,31.6212
1282199909058,31.6386
1282199969058,31.5491
1282200029058,31.6443
1282200089058,31.6275
1282200149058,31.5859
1282200209058,31.6225
1282200269058,32.3001
1282200329058,31.6161
1282200389058,31.5676
1282200449058,31.4860
1282200509058,31.5578
1282200569058,31.6879
1282200629058,31.6336
1282200689058,31.6673
1282200749058,31.6103
1282200809058,31.7210
1282200869058,31.6895
1282200929058,31.5688
1282200989058,31.6465
1282201049058,31.6263
1282201109058,31.4973
1282201169058,31.6677
1282201229067,31.6541
1282201289067,31.6697
1282201349067,31.6371
1282201409067,31.5464
1282201469067,31.7019
1282201529067,31.6674
1282201589067,31.5764
1282201649067,31.6531
1282201709067,31.6097
1282201769067,31.6386
1282201829067,31.6481
1282201889067,31.6889
1282201949067,31.6340
1282202009067,31.6247
1282202069067,31.6690
1282202129067,31.6180
1282202189067,31.5818
1282202249067,31.6316
1282202309067,31.7619
1282202369067,31.6896
1282202429067,31.5450
1282202489067,31.7146
1282202549067,31.6314
1282202609067,31.7479
1282202669067,31.6745
1282202729067,31.6210
1282202789067,31.6610
1282202849067,31.6656
1282202909067,31.6646
1282202969067,31.5382
1282203029067,31.6852
1282203089067,31.6951
1282203149067,31.6530
1282203209067,31.6155
1282203269067,31.5876
1282203329067,31.7105
1282203389067,31.6416
1282203449067,31.5957
1282203509067,31.6400
1282203569067,31.5950
1282203629067,31.6837
1282203689067,31.6890
1282203749067,31.6214
1282203809067,31.6661
1282203869067,31.6592
1282203929067,31.6684
1282203989067,31.5631
1282204049067,31.5204
1282204109067,31.5642
1282204169067,31.5837
1282204229067,31.6517
1282204289067,31.6193
1282204349067,31.5827
1282204409067,31.6290
1282204469067,31.6273
1282204529067,31.6187
1282204589067,31.6054
1282204649067,31.6323
1282204709067,31.6169
1282204769067,31.5491
1282204829076,31.7064
1282204889076,31.5963
1282204949076,31.5910
1282205009076,31.6975
1282205069076,31.6590
1282205129076,31.5742
1282205189076,31.5123
1282205249076,31.5946
1282205309076,31.6264
1282205369076,31.6896
1282205429076,31.5512
1282205489076,31.6063
1282205549076,31.6051
1282205609076,31.5764
1282205669076,31.5732
1282205729076,31.6609
1282205789076,31.5747
1282205849076,31.5657
1282205909076,31.5765
1282205969076,31.5286
1282206029076,31.5613
1282206089076,31.6163
1282206149076,31.6174
1282206209076,31.5517
1282206269076,31.6767
1282206329076,31.5223
1282206389076,31.5364
1282206449076,31.5083
1282206509076,31.6288
1282206569076,31.5583
1282206629076,31.4952
1282206689076,31.5540
1282206749076,31.6197
1282206809076,31.4902
1282206869076,31.5053
1282206929076,31.5474
1282206989076,31.6035
1282207049076,31.5880
1282207109076,31.6097
1282207169076,31.5168
1282207229076,31.4382
1282207289076,31.5822
1282207349076,31.6229
1282207409076,31.5339
1282207469076,31.5782
1282207529076,31.5457
1282207589076,31.4662
1282207649076,31.6024
1282207709076,31.5332
1282207769076,31.5315
1282207829076,31.5679
1282207889076,31.5127
1282207949076,31.5694
1282208009076,31.6258
1282208069076,31.5860
1282208129076,31.5989
1282208189076,31.5573
1282208249076,31.6506
1282208309076,31.6113
1282208369076,31.6645
1282208429085,31.5805
1282208489085,31.6331
1282208549085,31.4556
1282208609085,31.5971
1282208669085,31.6015
1282208729085,31.5699
1282208789085,31.5964
1282208849085,31.6403
1282208909085,31.5908
1282208969085,31.4893
1282209029085,31.5871
1282209089085,31.6324
1282209149085,31.5868
1282209209085,31.6343
1282209269085,31.6819
1282209329085,31.6606
1282209389085,31.5993
1282209449085,31.5949
1282209509085,31.6565
1282209569085,31.6494
1282209629085,31.6979
1282209689085,31.6734
1282209749085,31.6967
1282209809085,31.6461
1282209869085,31.5900
1282209929085,31.5975
1282209989085,31.6046
1282210049085,31.7025
1282210109085,31.6795
1282210169085,31.6398
1282210229085,31.6824
1282210289085,31.5969
1282210349085,31.6821
1282210409085,31.5969
1282210469085,31.6178
1282210529085,31.6575
1282210589085,31.6934
1282210649085,31.6987
1282210709085,31.6285
1282210769085,31.6243
1282210829085,31.6340
1282210889085,31.6556
1282210949085,31.5780
1282211009085,31.6737
1282211069085,31.4862
1282211129085,31.5407
1282211189085,31.6552
1282211249085,31.6049
1282211309085,31.5734
1282211369085,31.6733
1282211429085,31.6772
1282211489085,31.5966
1282211549085,31.5671
1282211609085,31.5816
1282211669085,31.6068
1282211729085,31.5962
1282211789085,31.5096
1282211849085,31.7580
1282211909085,31.6506
1282211969085,31.6176
1282212029094,31.5623
1282212089094,31.5518
1282212149094,31.4924
1282212209094,31.5709
1282212269094,31.5617
1282212329094,31.5023
1282212389094,31.5602
1282212449094,31.5094
1282212509094,31.3928
1282212569094,31.4866
1282212629094,31.5497
1282212689094,31.4507
1282212749094,31.4000
1282212809094,31.5715
1282212869094,31.4826
1282212929094,31.5192
1282212989094,31.4732
1282213049094,31.5695
1282213109094,31.4903
1282213169094,31.4718
1282213229094,31.5590
1282213289094,31.3871
1282213349094,31.4961
1282213409094,31.4819
1282213469094,31.3729
1282213529094,31.3832
1282213589094,31.4691
1282213649094,31.5701
1282213709094,31.6043
1282213769094,31.5004
1282213829094,31.4460
1282213889094,31.5557
1282213949094,31.5101
1282214009094,31.5972
1282214069094,31.5857
1282214129094,31.5814
1282214189094,31.6167
1282214249094,31.5441
1282214309094,31.5299
1282214369094,31.7690
1282214429094,31.5364
1282214489094,31.6310
1282214549094,31.5958
1282214609094,31.5644
1282214669094,31.6037
1282214729094,31.5386
1282214789094,31.5269
1282214849094,31.4816
1282214909094,31.5725
1282214969094,31.7245
1282215029094,31.5414
1282215089094,31.4998
1282215149094,31.5896
1282215209094,31.6628
1282215269094,31.5468
1282215329094,31.4004
1282215389094,31.6343
1282215449094,31.6088
1282215509094,31.5672
1282215569094,31.6136
1282215629103,31.5463
1282215689103,31.5297
1282215749103,31.5786
1282215809103,31.5388
1282215869103,31.4722
1282215929103,31.6168
1282215989103,31.5186
1282216049103,31.5767
1282216109103,31.4782
1282216169103,31.5871
1282216229103,31.4941
1282216289103,31.5653
1282216349103,31.5480
1282216409103,31.4863
1282216469103,31.4420
1282216529103,31.5616
1282216589103,31.4904
1282216649103,31.4322
1282216709103,31.4639
1282216769103,31.5675
1282216829103,31.5445
1282216889103,31.4327
1282216949103,31.4897
1282217009103,31.4901
1282217069103,31.5283
1282217129103,31.4463
1282217189103,31.4486
1282217249103,31.3991
1282217309103,31.3889
1282217369103,31.3447
1282217429103,31.3764
1282217489103,31.4755
1282217549103,31.4710
1282217609103,31.4658
1282217669103,31.4458
1282217729103,31.4872
1282217789103,31.4814
1282217849103,31.4660
1282217909103,31.4888
1282217969103,31.5156
1282218029103,31.4964
1282218089103,31.6074
1282218149103,31.4345
1282218209103,31.4652
1282218269103,31.5429
1282218329103,31.5888
1282218389103,31.5175
1282218449103,31.4807
1282218509103,31.5068
1282218569103,31.5753
1282218629103,31.4828
1282218689103,31.5163
1282218749103,31.7019
1282218809103,31.5205
1282218869103,31.5589
1282218929103,31.4843
1282218989103,31.6210
1282219049103,31.5303
1282219109103,31.5488
1282219169103,31.5428
1282219229113,31.6849
1282219289113,31.4903
1282219349113,31.4951
1282219409113,31.5270
1282219469113,31.5328
1282219529113,31.6063
1282219589113,31.5166
1282219649113,31.5317
1282219709113,31.6458
1282219769113,31.6325
1282219829113,31.5274
1282219889113,31.5202
1282219949113,31.5935
1282220009113,31.5391
1282220069113,31.5960
1282220129113,31.5157
1282220189113,31.5839
1282220249113,31.5550
1282220309113,31.8808
1282220369113,31.5339
1282220429113,31.5190
1282220489113,31.5394
1282220549113,31.5014
1282220609113,31.4448
1282220669113,31.5420
1282220729113,31.5892
1282220789113,31.5568
1282220849113,31.5079
1282220909112,31.5282
1282220969113,31.4709
1282221029113,31.4922
1282221089113,31.5147
1282221149113,31.5361
1282221209113,31.6113
1282221269113,31.4691
1282221329113,31.5989
1282221389113,31.5285
1282221449113,31.4996
1282221509113,31.6321
1282221569113,31.6124
1282221629113,31.5176
1282221689113,31.4784
1282221749113,31.6293
1282221809113,31.5190
1282221869113,31.5354
1282221929113,31.5204
1282221989113,31.5485
1282222049113,31.5118
1282222109113,31.6247
1282222169113,31.5103
1282222229113,31.5669
1282222289113,31.5373
1282222349113,31.4563
1282222409113,31.5122
1282222469113,31.4859
1282222529113,31.4991
1282222589113,31.4909
1282222649113,31.4725
1282222709113,31.5314
1282222769113,31.5239
1282222829122,31.5107
1282222889122,31.4344
1282222949122,31.4953
1282223009122,31.4473
1282223069122,31.4667
1282223129122,31.4808
1282223189122,31.4266
1282223249122,31.4006
1282223309122,31.4798
1282223369122,31.5037
1282223429122,31.4255
1282223489122,31.5508
1282223549122,31.4631
1282223609122,31.4274
1282223669122,31.5114
1282223729122,31.5165
1282223789122,31.4059
1282223849122,31.4376
1282223909122,31.4283
1282223969122,31.5044
1282224029122,31.4228
1282224089122,31.4558
1282224149122,31.4893
1282224209122,31.5683
1282224269122,31.5258
1282224329122,31.5320
1282224389122,31.4541
1282224449122,31.5324
1282224509122,31.5126
1282224569122,31.5020
1282224629122,31.4422
1282224689122,31.3491
1282224749122,31.4628
1282224809122,31.5202
1282224869122,31.5518
1282224929122,31.5441
1282224989122,31.4374
1282225049122,31.5250
1282225109122,31.3849
1282225169122,31.4677
1282225229122,31.4159
1282225289122,31.4253
1282225349122,31.5419
1282225409122,31.4100
1282225469122,31.4388
1282225529122,31.4681
1282225589122,31.4749
1282225649122,31.3587
1282225709122,31.4950
1282225769122,31.4829
1282225829122,31.4695
1282225889122,31.5146
1282225949122,31.4551
1282226009122,31.4233
1282226069122,31.4435
1282226129122,31.4876
1282226189122,31.4517
1282226249122,31.4996
1282226309122,31.4962
1282226369122,31.4086
1282226429132,31.5170
1282226489132,31.5779
1282226549132,31.5482
1282226609132,31.5736
1282226669132,31.6059
1282226729132,31.5573
1282226789132,31.5326
1282226849132,31.5579
1282226909132,31.4248
1282226969132,31.5147
1282227029132,31.5518
1282227089132,31.4230
1282227149132,31.4602
1282227209132,31.5367
1282227269132,31.4427
1282227329132,31.4465
1282227389132,31.5034
1282227449132,31.4520
1282227509132,31.4234
1282227569132,31.6484
1282227629132,31.5265
1282227689132,31.4648
1282227749132,31.5017
1282227809132,31.6155
1282227869132,31.5069
1282227929132,31.5617
1282227989132,31.5241
1282228049132,31.4792
1282228109132,31.4216
1282228169132,31.5314
1282228229132,31.6274
1282228289132,31.5772
1282228349132,31.5076
1282228409132,31.4705
1282228469132,31.4109
1282228529132,31.4837
1282228589132,31.4740
1282228649132,31.5753
1282228709132,31.5157
1282228769132,31.4726
1282228829132,31.4524
1282228889132,31.4117
1282228949132,31.5387
1282229009132,31.4712
1282229069132,31.4131
1282229129132,31.4775
1282229189132,31.4408
1282229249132,31.5360
1282229309132,31.5033
1282229369132,31.4409
1282229429132,31.4665
1282229489132,31.5491
1282229549132,31.5132
1282229609132,31.5159
1282229669132,31.4487
1282229729132,31.6184
1282229789132,31.4876
1282229849132,31.4463
1282229909132,31.5705
1282229969132,31.5183
1282230029142,31.5030
1282230089142,31.5567
1282230149142,31.5162
1282230209142,31.4705
1282230269142,31.5300
1282230329142,31.4749
1282230389142,31.5204
1282230449142,31.5210
1282230509142,31.4150
1282230569142,31.5021
1282230629142,31.4568
1282230689142,31.5320
1282230749142,31.5891
1282230809142,31.5699
1282230869142,31.4172
1282230929142,31.4855
1282230989142,31.5538
1282231049142,31.3989
1282231109142,31.4339
1282231169142,31.4270
1282231229142,31.4852
1282231289142,31.3936
1282231349142,31.3619
1282231409142,31.4259
1282231469142,31.4652
1282231529142,31.4359
1282231589142,31.4891
1282231649142,31.4400
1282231709142,31.4592
1282231769142,31.4443
1282231829142,31.4113
1282231889142,31.4430
1282231949142,31.3888
1282232009142,31.4527
1282232069142,31.3044
1282232129142,31.4461
1282232189142,31.3468
1282232249142,31.3730
1282232309142,31.3033
1282232369142,31.3742
1282232429142,31.4712
1282232489142,31.4727
1282232549142,31.4198
1282232609142,31.4521
1282232669142,31.3820
1282232729142,31.3695
1282232789142,31.3673
1282232849142,31.3226
1282232909142,31.4986
1282232969142,31.3478
1282233029142,31.4045
1282233089142,31.4102
1282233149142,31.4052
1282233209142,31.3801
1282233269142,31.4342
1282233329142,31.4123
1282233389142,31.4299
1282233449142,31.3941
1282233509142,31.3922
1282233569142,31.2434
1282233629152,31.3328
1282233689152,31.3859
1282233749152,31.3855
1282233809152,31.4515
1282233869152,31.2994
1282233929152,31.2908
1282233989152,31.3585
1282234049152,31.3047
1282234109152,31.3082
1282234169152,31.3152
1282234229152,31.2255
1282234289152,31.3262
1282234349152,31.3163
1282234409152,31.2035
1282234469152,31.3026
1282234529152,31.2613
1282234589152,31.1788
1282234649152,31.2730
1282234709152,31.2222
1282234769152,31.3241
1282234829152,31.2195
1282234889152,31.2370
1282234949152,31.3179
1282235009152,31.1810
1282235069152,31.1824
1282235129152,31.2354
1282235189152,31.2919
1282235249152,31.3215
1282235309152,31.1783
1282235369152,31.1828
1282235429152,31.1751
1282235489152,31.2063
1282235549152,31.1069
1282235609152,31.0985
1282235669152,31.0830
1282235729152,31.1138
1282235789152,31.2203
1282235849152,31.1143
1282235909152,31.2165
1282235969152,31.0910
1282236029152,31.0215
1282236089152,31.0235
1282236149152,31.0238
1282236209152,31.0379
1282236269152,31.0043
1282236329152,31.0807
1282236389152,30.9655
1282236449152,31.0305
1282236509152,31.1043
1282236569152,31.1056
1282236629152,31.0784
1282236689152,31.0235
1282236749152,31.0763
1282236809152,31.0292
1282236869152,31.0689
1282236929152,30.9865
1282236989152,30.9496
1282237049152,31.1004
1282237109152,30.9425
1282237169152,30.9842
1282237229162,31.0202
1282237289162,30.9933
1282237349162,31.0956
1282237409162,30.9814
1282237469162,30.9405
1282237529162,31.0535
1282237589162,31.0913
1282237649162,31.0370
1282237709162,31.1218
1282237769162,31.0782
1282237829162,30.9861
1282237889162,31.1321
1282237949162,31.0098
1282238009162,31.1223
1282238069162,31.0695
1282238129162,31.0495
1282238189162,31.0222
1282238249162,31.0815
1282238309162,30.9689
1282238369162,30.9793
1282238429162,30.9647
1282238489162,31.1006
1282238549162,31.1262
1282238609162,31.1405
1282238669162,31.0137
1282238729162,31.0491
1282238789162,31.0470
1282238849162,31.0470
1282238909162,31.1219
1282238969162,31.0004
1282239029162,31.0109
1282239089162,31.1108
1282239149162,31.0414
1282239209162,31.1021
1282239269162,31.1062
1282239329162,31.1272
1282239389162,31.0254
1282239449162,31.0203
1282239509162,31.1201
1282239569162,31.0889
1282239629162,31.0327
1282239689162,31.0688
1282239749162,30.9783
1282239809162,31.0374
1282239869162,30.9585
1282239929162,31.0815
1282239989162,31.1292
1282240049162,31.0652
1282240109162,31.0361
1282240169162,31.0011
1282240229162,30.9420
1282240289162,31.0710
1282240349162,31.0949
1282240409162,31.0799
1282240469162,31.0925
1282240529162,31.0368
1282240589162,31.0909
1282240649162,31.0832
1282240709162,31.1091
1282240769162,30.9869
1282240829173,31.0049
1282240889173,30.9680
1282240949173,31.0697
1282241009173,30.9886
1282241069173,30.9990
1282241129173,31.1061
1282241189173,30.9661
1282241249173,30.9987
1282241309173,30.9964
1282241369173,31.0340